Content
SEND FEEDBACK

Daily
Averages
Monthly
Summary
United States of America

CURRYVILLE, GEORGIA


Home > North America > United States > Georgia
Elevation: 65 feet     Latitude: 34 27N     Longitude: 085 07W

WEATHER
 
SELECT A DAY
Number of Records: 214,150;   Date Range: 1/1/95 - 10/21/14
 
SHARE

PRINT THIS DATA

[ ← Previous Day ]
WEATHER ALMANAC - FEBRUARY 5, 2013
[ Next Day → ]
[ °C ]   °F
Weather ElementAverageHighLow
Temperature45.6 °F55 °F (4:53 pm)37 °F (1:53 am)
Dewpoint40.1 °F46.9 °F (4:53 pm)34 °F (3:53 am)
Humidity81.9 %100 % (10:33 pm)66 % (11:13 am)
Barometer30.01 in30.05 in (11:40 am)29.96 in (3:53 am)
Wind Speed1.6 mph8.1 mph (12:53 pm)
Weather ElementAverage
Visibility8.2 mi
Wind DirectionENE (56.5 °)

Weather ElementTotal
Precipitation---
Heating Degree Days19 (Base 65)
Averaged from 37 records on February 5, 2013
WEATHER CONDITIONS BREAKOUT
WIND DIRECTION BREAKOUT
WEATHER BY HOUR - FEBRUARY 5, 2013
[ °C ]   °F
Local TimeTemperatureDewpointHumidityBarometerVisibilityWind DirectionWind SpeedGust SpeedPrecipitationEventsConditions
1:53 AM37.0 °F35.1 °F93 %29.99 in10.0 miCalmOvercast
2:53 AM37.9 °F35.1 °F89 %29.97 in10.0 miCalmOvercast
3:53 AM37.9 °F34.0 °F86 %29.96 in10.0 miCalmScattered Clouds
4:53 AM39.9 °F36.0 °F86 %29.96 in10.0 miCalmOvercast
5:53 AM39.9 °F36.0 °F86 %29.98 in10.0 miCalmOvercast
6:53 AM39.9 °F36.0 °F86 %30.00 in10.0 miCalmOvercast
7:53 AM41.0 °F37.0 °F86 %30.01 in10.0 miCalmOvercast
8:53 AM42.1 °F36.0 °F79 %30.03 in10.0 miCalmOvercast
9:53 AM44.1 °F36.0 °F73 %30.04 in10.0 miCalmOvercast
10:36 AM46.4 °F37.4 °F71 %30.04 in10.0 miCalmOvercast
10:53 AM48.0 °F37.9 °F68 %30.04 in10.0 miCalmMostly Cloudy
11:13 AM48.2 °F37.4 °F66 %30.04 in10.0 miCalmMostly Cloudy
11:40 AM48.2 °F37.4 °F66 %30.05 in10.0 miCalmOvercast
11:53 AM48.9 °F37.9 °F66 %30.05 in10.0 miWSW (250°)3.5 mphOvercast
12:08 PM48.2 °F39.2 °F71 %30.04 in10.0 miCalmOvercast
12:53 PM51.1 °F41.0 °F68 %30.02 in10.0 miSouth (190°)8.1 mphOvercast
1:53 PM52.0 °F42.1 °F69 %29.99 in10.0 miSouth (180°)5.8 mphOvercast
2:10 PM53.6 °F42.8 °F67 %29.99 in10.0 miSSW (200°)4.6 mphOvercast
2:53 PM52.0 °F43.0 °F71 %29.99 in10.0 miSSW (210°)8.1 mphOvercast
3:12 PM53.6 °F44.6 °F72 %29.99 in10.0 miSSW (210°)8.1 mphOvercast
3:53 PM54.0 °F45.0 °F72 %29.97 in10.0 miSW (220°)8.1 mphMostly Cloudy
4:01 PM53.6 °F44.6 °F72 %29.98 in10.0 miSW (230°)4.6 mphMostly Cloudy
4:53 PM55.0 °F46.9 °F74 %29.97 in10.0 miSW (220°)3.5 mphScattered Clouds
5:53 PM53.1 °F46.0 °F77 %29.98 in10.0 miCalmScattered Clouds
6:06 PM53.6 °F46.4 °F77 %29.99 in10.0 miCalmMostly Cloudy
6:53 PM52.0 °F46.0 °F80 %29.99 in10.0 miCalmOvercast
7:31 PM48.2 °F46.4 °F93 %29.99 in10.0 miSouth (180°)3.5 mphScattered Clouds
7:53 PM48.0 °F45.0 °F89 %30.00 in10.0 miCalmClear
8:53 PM45.0 °F44.1 °F97 %30.01 in8.0 miCalmClear
9:53 PM42.1 °F41.0 °F96 %30.03 in5.0 miCalmPartly Cloudy
10:33 PM41.0 °F41.0 °F100 %30.04 in1.8 miCalmClear
10:43 PM41.0 °F39.2 °F93 %30.05 in3.0 miCalmClear
10:53 PM39.0 °F39.0 °F100 %30.04 in2.5 miCalmPartly Cloudy
11:22 PM37.4 °F37.4 °F100 %30.04 in1.0 miCalmMist
11:31 PM39.2 °F37.4 °F93 %30.04 in0.8 miCalmMist
11:36 PM37.4 °F37.4 °F100 %30.04 in1.2 miCalmScattered Clouds
11:53 PM37.9 °F37.9 °F100 %30.05 in1.8 miCalmPartly Cloudy
Hourly data recorded from KRMG, located miles away from Curryville, Georgia







STORIES FROM OUR PARTNERS